OV1-9 R/B, 2622

Orbit data source: Space-Track

OV1-9 R/B, 2622 is space debris in LEO originally from a launch on Sun, 11 Dec 1966 UTC launched from the Air Force Western Test Range (AFWTR). Debris objects in space refer to the collection of defunct objects orbiting the Earth. Examples of debris include non-operational satellites, rocket bodies, and fragments generated from explosions, collisions, or faulty payload assembly.

Loading next visibility...
Identifier
2622, 1966-111D
Orbit
LEO
Country
Flag of USUS
Related business
Manufacturer
ABL
Mission
Spacecraft
Bus & Motor
ALTAIR, Unknown motor
Mass
125 kg wet, 125 kg dry
Launch date (UTC)
1966-12-11 (59 years ago)
Launch vehicle
Unknown
Launch site
Air Force Western Test Range (AFWTR)
Object type
Payload
Rocket body
Debris
Shape & HBR
Unknown
Radar Cross Section
Medium (>0.1 m² and <1 m²)

Expand to show TLE details & history
Last TLE update: 1 day ago

TLE from 1 day ago
0 OV1-9 R/B
1 02622U 66111D   25354.46268994  .00000870  00000-0  34962-3 0  9996
2 02622  99.0869 348.9551 2222871 338.5028  13.5235 10.49606332226141
Epoch: 2025-12-20T11:06Z
TLE epoch observation values (Epoch: 2025-12-20T11:06:16.410Z)
Latitude
-0.00004°
Longitude
93.09759°
Altitude
565.814 km
Speed
8.343 km/s
True Right ascension
23h 15m 49s
True Declination
0° 00' 00"
Sunlit
Object was in daylight at epoch
Visualization orbit readout
Latitude
Unknown
Longitude
Unknown
Altitude
Unknown
Speed
Unknown
Apparent Right ascension
Unknown
Apparent Declination
Unknown
Sunlit
N/A
Visualization observer readout
Local Sidereal Time
21:37:47
Azimuth
Unknown
Elevation
Unknown
Doppler factor
Unknown
Orbital elements
Apogee altitude
4,389.029 km
Perigee altitude
472.761 km
Semi-major axis
8,809.032 km
Eccentricity
0.22229
Inclination
99.0869°
RAAN
348.9551°
Arg. of periapsis
338.5028°
True anomaly
21.61226°
Mean anomaly
13.5235°
Eccentric anomaly
17.31384°
Mean motion
2.62513 °/min
Orbital period
137.14 mins
BSTAR
0.00034962
Loading maneuver chart data...
Computing Atmospheric mass density...
Loading historical data...
Loading historical data...
Loading historical data...
Loading historical data...
Loading historical data...
Loading historical data...
Loading historical data...
Other satellites on launch #111 in the year 1966 (1966-12-11 UTC)

Documentation

Showing up to 5 results
|